STARLINK-4429 (53495 NORAD) Tracking and Keplerian Element Data

This shows tracking and keplerian element data for the satellite.

Feedback or suggestion? Click here.




ElementValue
Catalog53495
NameSTARLINK-4429
Epoch Orbit1552
Epoch Day325.20636514
Epoch Year2022
RAAN84.2716
Inclination97.656
Eccentricity0.0003159
Argument of Perigee15.5074
Mean Anonmoly344.6246
Mean Motion15.0126889
Decay Rate1.259E-05
L11 53495U 22099AG 22325.20636514 .00001259 00000+0 10260-3 0 9997
L22 53495 97.6560 84.2716 0003159 15.5074 344.6246 15.01268890 15521



Live tracking and technical data element details for STARLINK-4429 (NORAD 53495). STARLINK-4429 can be tracked NOW for your location showing map with azimuth and elevation plus other details from your city location.







IsCatalogInMostPopularTable: catalog: 53495, numindb: 4
Update: records affected: 1



GetName: 53495 STARLINK-4429

Hit Count: updated at: Thu, 08 Dec 2022 09:18:40 GMT